Regional Weather Roundup
Issued by NWS

Home | Current Version | Previous Version | Graphics & Text | Print | Product List | Glossary Off
Versions: 1 2 3 4 5 6 7 8 9 10 11 12 13 14 15 16 17 18 19 20 21 22 23 24 25 26 27 28 29 30 31 32 33 34 35 36 37 38 39 40 41 42 43 44 45 46 47 48 49 50

000
ASUS43 KTOP 300908
RWRKS

WEATHER ROUNDUP FOR KANSAS
NATIONAL WEATHER SERVICE GOODLAND KS
400 AM CDT SAT JUL 30 2016

NOTE:  "FAIR" INDICATES FEW OR NO CLOUDS BELOW 12,000 FEET WITH NO
SIGNIFICANT WEATHER AND/OR OBSTRUCTIONS TO VISIBILITY.

KSZ001>006-013>018-027>032-041>047-301000-
NORTHWEST KANSAS

CITY           SKY/WX    TMP DP  RH WIND       PRES   REMARKS
GOODLAND       CLOUDY    66  61  84 S3        30.03S
HAYS           CLOUDY    70  61  73 SE6       30.01S
HILL CITY      PTCLDY    67  65  93 E6        30.03S
RUSSELL        CLOUDY    70  67  90 SE7       30.00S
$$

KSZ061>065-074>080-084>089-301000-
SOUTHWEST KANSAS

CITY           SKY/WX    TMP DP  RH WIND       PRES   REMARKS
DODGE CITY     CLOUDY    69  66  90 S9        30.04F
ELKHART          N/A     65  60  84 N3          N/A
GARDEN CITY    PTCLDY    67  66  97 S9        30.03F
GREAT BEND     CLOUDY    70  63  78 S5        30.01S
LIBERAL        CLOUDY    70  63  78 SE8       30.06F
PRATT          CLOUDY    69  65  87 S7        30.02S
$$

KSZ066>073-081>083-090>101-301000-
SOUTHEAST KANSAS

CITY           SKY/WX    TMP DP  RH WIND       PRES   REMARKS
CHANUTE        CLOUDY    71  69  93 CALM      29.99S
COFFEYVILLE    CLEAR     70  69  97 CALM      29.98S
HUTCHINSON     CLEAR     70  68  93 CALM      30.01F
MEDICINE LODGE   N/A     72  68  87 E3        29.99F
NEWTON         CLEAR     69  68  96 SE5       30.02S
PARSONS        CLEAR     69  67  93 CALM      30.00
WICHITA INTL   PTCLDY    73  69  87 CALM      29.99F
WICHITA JABRA  CLEAR     69  69 100 CALM      30.00F
WICHITA MCCONL PTCLDY    73  69  87 S1        30.00F
WINFIELD       CLOUDY    74  70  87 CALM      30.00S
$$

KSZ007>012-019>026-033>040-048>060-102>105-301000-
NORTHEAST KANSAS

CITY           SKY/WX    TMP DP  RH WIND       PRES   REMARKS
CONCORDIA      CLOUDY    65  63  93 CALM      30.02S
EMPORIA        PTCLDY    68  67  96 CALM      30.00F
LAWRENCE       CLOUDY    65  61  87 CALM      30.00S
MANHATTAN      PTCLDY    67  64  90 CALM      30.00F
MARYSVILLE     CLEAR     63  63 100 CALM      30.02S
OLATHE IND     CLEAR     66  63  90 NE3       30.01S
OLATHE EXE     CLEAR     67  62  84 CALM      30.01S
SALINA         CLOUDY    72  68  87 SE5       30.00S
TOPEKA BILLARD PTCLDY    66  64  93 CALM      30.01S
TOPEKA FORBES  CLOUDY    67  64  90 CALM      30.01S
$$



USA.gov is the U.S. government's official web portal to all federal, state and local government web resources and services.